www.pogodaiklimat.ru

ПОГОДА в Эммонаке, AK

  • Прогноз погоды в Эммонаке
  • Монитор погоды в Эммонаке
  • Климат в Эммонаке

АРХИВ ПОГОДЫ в Эммонаке

Время (UTC), дата Ветер
(напр.,м/с)
 
Видим.   Явления Облачность Т
(С)
Тd
(С)
f
(%)
Тe
(С)
Тes
(С)
Комфортность

P
(гПа)

Po
(гПа)
Тmin
(С)
Tmax
(С)
R
(мм)
SD
(см)
06:56 22.05 Ю  14 км  слабый дождь  10/5 900 м
[средняя] 
+7.2  +5.6  90  +3  +3    1024.5  1018.0         
07:04 22.05 Ю  16 км  слабый дождь  10/8 780 м
[средняя] 
+7.0  +6.0  93  +3  +3      1018.0         
07:44 22.05 ЮВ  16 км    2/2 300 м  +6.0  +4.0  87  +2  +2      1018.4         
07:56 22.05 ЮВ  16 км    2/2 300 м  +6.1  +5.0  93  +2  +2    1025.2  1018.7         
08:27 22.05 Ю  16 км    8/8 570 м  +6.0  +5.0  93  +1  +1      1018.7         
08:56 22.05 Ю  16 км    8/8 210 м  +5.6  +4.4  92  +2  +2    1025.2  1018.7         
09:06 22.05 Ю  16 км    2/2 210 м  +5.0  +4.0  93  +1  +1      1018.7         
09:41 22.05 ЮВ  16 км    8/8 240 м  +5.0  +4.0  93  +1  +1      1018.7         
09:56 22.05 Ю  16 км    10/10 240 м  +5.0  +4.4  96  +1  +1    1025.5  1019.0         
10:09 22.05 ЮЗ  16 км    10/10 300 м  +5.0  +4.0  93  0  0      1019.0         
10:22 22.05 ЮЗ  16 км    10/10 210 м  +5.0  +4.0  93  +1  +1      1019.0         
10:34 22.05 ЮЗ  16 км    10/10 150 м  +6.0  +4.0  87  +3  +3      1019.0         
10:56 22.05 ЮЗ  16 км    10/10 150 м  +5.0  +4.4  96  +1  +1    1025.8  1019.0  +5.0  +8.3     
11:23 22.05 ЮВ  16 км    10/10 240 м  +6.0  +4.0  87  +3  +3      1019.4         
11:56 22.05 ЮВ  16 км    10/10 240 м  +5.0  +3.9  93  +1  +1    1025.8  1019.4         
12:56 22.05 ЮЗ  16 км    10/10 180 м  +4.4  +3.9  97  +1  +1    1026.0  1019.4         
13:06 22.05 Ю  16 км    10/10 180 м  +4.0  +4.0  100  +1  +1      1019.4         
13:13 22.05 ЮЗ  16 км    10/10 180 м  +4.0  +4.0  100  0  0      1019.4         
13:23 22.05 ЮВ  16 км    10/10 120 м  +4.0  +4.0  100  +1  +1      1019.4         
13:54 22.05 ЮВ  16 км    8/8 120 м  +4.0  +4.0  100  0  0      1019.4         
13:56 22.05 ЮВ  16 км    8/8 120 м  +4.4  +3.9  97  +2  +2    1025.9  1019.4         
14:25 22.05   16 км    8/8 300 м  +4.0  +4.0  100  +3  +3      1019.4         
14:35 22.05 ЮВ  16 км    5/5 240 м  +4.0  +4.0  100  +1  +2      1019.4         
14:56 22.05 ЮВ  16 км    5/5 60 м  +5.0  +4.4  96  +2  +2    1025.9  1019.4         
15:05 22.05 Ю  16 км    8/8 60 м  +5.0  +4.0  93  +2  +2      1019.4         
15:45 22.05   16 км    5/5 60 м  +6.0  +4.0  87  +5  +6      1019.0         
15:56 22.05 В  16 км    2/2 60 м  +6.1  +4.4  89  +4  +5    1025.6  1019.0         
16:25 22.05   16 км    8/8 180 м  +6.0  +4.0  87  +5  +6      1019.0         
16:56 22.05   16 км    8/8 60 м  +6.1  +3.9  86  +5  +6    1025.7  1019.0  +4.4  +6.1     
17:07 22.05 В  16 км    5/5 300 м  +7.0  +4.0  81  +5  +8      1019.0         
17:27 22.05   16 км    8/8 420 м  +7.0  +3.0  76  +6  +7      1019.0         
17:56 22.05 В  16 км    10/10 480 м  +7.2  +3.3  76  +6  +6    1025.5  1018.7         
18:38 22.05 СВ  16 км    5/5 630 м  +8.0  +3.0  71  +6  +9      1018.7         
18:56 22.05 нст  16 км    ясно  +8.3  +2.8  68  +6  +11    1025.1  1018.4         
19:56 22.05 нст  13 км    8/8 750 м  +8.9  +2.2  63  +7  +9    1024.7  1018.0         
20:20 22.05 С  13 км    5/5 30 м  +9.0  +3.0  66  +7  +12      1018.0         
20:54 22.05 СВ  16 км    8/8 840 м  +11.0  +3.0  58  +9  +11      1017.7         
20:56 22.05 В  16 км    8/8 840 м  +10.6  +3.3  61  +9  +11    1024.1  1017.3         
21:22 22.05 СВ  16 км    8/8 900 м  +11.0  +4.0  62  +9  +10      1017.0         
21:56 22.05 С  16 км    2/2 900 м  +10.6  +4.4  65  +7  +10    1023.2  1016.7         
22:56 22.05 СЗ  7
{8} 
16 км    8/8 840 м  +11.1  +5.6  69  +8  +8    1022.6  1016.0  +6.1  +11.1     
23:36 22.05 СВ  16 км    8/8 870 м  +12.0  +5.0  62  +10  +11      1015.7         
23:56 22.05 СВ  16 км    8/8 870 м  +11.7  +4.4  61  +9  +11    1022.2  1015.7         
00:11 23.05 СВ  16 км    8/8 930 м  +11.0  +5.0  66  +8  +9      1015.7         
00:37 23.05 С  7
{9} 
16 км    8/8 810 м  +12.0  +5.0  62  +9  +9      1015.3         
01:24 23.05 С  5
{9} 
16 км    5/5 810 м  +11.0  +5.0  66  +8  +10      1015.0         
01:56 23.05 С  16 км    2/2 690 м  +10.6  +6.1  74  +7  +8    1021.5  1015.0         
02:22 23.05 С  7
{9} 
16 км    8/8 630 м  +11.0  +6.0  71  +8  +8      1015.0         

 

Местоположение метеостанции Emmonak Airport: широта 62.7833 долгота -164.5000 высота над уровнем моря 4 м.

В архиве по умолчанию представлена погода в Эммонаке за последние 1-2 суток. Обновление информации о фактической погоде в базе происходит ежечасно! Архивные данные за месяц целиком и за предыдущие месяцы Вы можете получить, выбрав интересующий диапазон дат из раскрывающегося списка и нажав кнопку "Ввод!".

Внимание! Архив погоды МЕТАР в базе сайта хранится не более 60 дней. Нет смысла пытаться выбрать более раннюю дату.

Внимание! Время в таблицах - всемирное. Для получения местного времени необходимо прибавить поправку, которая в Эммонаке равна -9 ч.

Ветер - указаны скорость ветра в м/с и направление, откуда дует ветер: С - северный, СВ - северо-восточный, В - восточный, ЮВ - юго-восточный, Ю - южный, ЮЗ - юго-западный, З - западный, СЗ - северо-западный.
Видимость - горизонтальная дальность видимости в метрах или километрах. При видимости от 1 до 10 км при отсутствии осадков обычно наблюдается дымка, при ухудшении видимости до 1 км и менее - туман. В сухую погоду видимость может ухудшаться дымом, пылью или мглою.
Атмосферные явления - указаны явления, наблюдавшиеся в указанный момент времени.
Облачность - указаны через наклонную черту верхняя и нижняя облачность в баллах и высота нижней границы облаков в метрах. Внимание: облачность, как и прочие метеорологические величины в США измеряются автоматическими метеостанциями. Указанные значения в баллах носят условный характер и показывают процент времени, в течение которого, в среднем, лазерный луч высотомера отражался от облаков обратно.
T - Температура воздуха - температура, измеренная на высоте 2 м над землей.
Td - Температура точки росы - температура, при понижении до которой содержащийся в воздухе водяной пар достигнет насыщения.
f - Относительная влажность воздуха - влажноcть воздуха, измеренная на высоте 2 м над землей.
Te - Эффективная температура - температура, которую ощущает одетый по сезону человек в тени. Характеристика душности погоды. При расчете учитывается влияние влажности воздуха и скорости ветра на теплоощущения человека.
Tes - Эффективная температура на солнце - температура, которую ощущает человек, с поправкой на солнечный нагрев. Характеристика знойности погоды. Зависит от высоты солнца над горизонтом, облачности и скорости ветра. Ночью, в пасмурную погоду, а также при ветре 12 м/с и более поправка равна нулю.
P - Атмосферное давление - приведенное к уровню моря атмосферное давление.
Po - Атмосферное давление - измеренное на уровне метеостанции атмосферное давление.
Tmin - Минимальная температура - минимум температуры воздуха на высоте 2 м над землей.
Tmax - Максимальная температура - максимум температуры воздуха на высоте 2 м над землей.
R - Количество осадков - Количество выпавших осадков за 3 или 6 часов, мм.
SD - Снежный покров - Высота снежного покрова, см.